Le nostre stazioni meteo in Italia

Pubblicità
Il mio iltempo24.it
Capo Spartivento, Italia (16469): Temperatura & dewpoint: 14.08.2017 05:00:00 - 20.08.2017 05:00:00 (CEST)Capo Spartivento, Italia (16469): velocità del vento: 14.08.2017 05:00:00 - 20.08.2017 05:00:00 (CEST)Capo Spartivento, Italia (16469): direzione del vento: 14.08.2017 05:00:00 - 20.08.2017 05:00:00 (CEST)Capo Spartivento, Italia (16469): reduced air pressure: 14.08.2017 05:00:00 - 20.08.2017 05:00:00 (CEST)Capo Spartivento, Italia (16469): precipitazioni: 14.08.2017 05:00:00 - 20.08.2017 05:00:00 (CEST)
Data & Tempo tt [°C] td [°C] ff [km/h] ff [kn] dd ppp [hPa] rr [mm]
20.08.2017 05:00:00 29,4 11,5 4 2 O 1011,7 -
20.08.2017 04:00:00 29,4 11,5 5 3 ONO 1012,0 -
20.08.2017 03:00:00 29,0 13,2 5 3 NNO 1012,3 -
20.08.2017 02:00:00 30,5 13,7 5 3 SSO 1012,6 0,0
20.08.2017 01:00:00 29,4 15,5 13 7 SSO 1013,0 -
20.08.2017 00:00:00 27,4 24,2 8 4 SSO 1013,7 -
19.08.2017 23:00:00 29,0 17,8 8 4 S 1013,7 -
19.08.2017 22:00:00 27,4 24,6 15 8 S 1014,1 -
19.08.2017 21:00:00 27,4 23,4 11 6 S 1013,8 -
19.08.2017 20:00:00 - - - - - - -
19.08.2017 19:00:00 28,6 25,2 21 11 SO 1013,4 -
19.08.2017 18:00:00 29,3 23,9 21 11 S 1013,6 -
19.08.2017 17:00:00 29,0 22,7 21 11 SSO 1013,6 -
19.08.2017 16:00:00 28,9 24,2 21 11 S 1014,0 -
19.08.2017 15:00:00 29,2 23,4 15 8 S 1014,4 -
19.08.2017 14:00:00 29,6 26,0 13 7 S 1014,8 0,0
19.08.2017 13:00:00 31,0 25,1 5 3 SSE 1014,8 -
19.08.2017 12:00:00 30,7 26,4 5 3 E 1014,9 -
19.08.2017 11:00:00 29,8 24,2 13 7 NNE 1015,0 -
19.08.2017 10:00:00 29,6 22,3 13 7 NNE 1014,9 -
19.08.2017 09:00:00 29,1 19,4 11 6 N 1014,6 -
19.08.2017 08:00:00 - - - - - - -
19.08.2017 07:00:00 27,8 14,0 13 7 NNO 1013,8 -
19.08.2017 06:00:00 28,6 14,0 9 5 NNO 1013,6 -
19.08.2017 05:00:00 28,4 14,2 9 5 NO 1013,3 -
19.08.2017 04:00:00 27,6 14,5 11 6 NNO 1013,4 -
19.08.2017 03:00:00 28,2 14,7 5 3 ONO 1013,6 -
19.08.2017 02:00:00 28,6 15,5 8 4 S 1014,0 0,0
19.08.2017 01:00:00 28,4 15,3 11 6 NNE 1014,1 -
19.08.2017 00:00:00 28,4 15,3 8 4 NE 1014,5 -
18.08.2017 23:00:00 28,4 16,9 2 1 SO 1014,8 -
18.08.2017 22:00:00 28,4 17,5 5 3 NNO 1015,0 -
18.08.2017 21:00:00 28,2 21,2 5 3 ENE 1014,7 -
18.08.2017 20:00:00 - - - - - - -
18.08.2017 19:00:00 30,3 19,6 5 3 S 1014,2 -
18.08.2017 18:00:00 30,4 20,9 5 3 ENE 1014,5 -
18.08.2017 17:00:00 30,2 21,0 11 6 S 1014,5 -
18.08.2017 16:00:00 30,2 22,3 21 11 S 1014,5 -
18.08.2017 15:00:00 30,5 18,9 21 11 S 1014,7 -
18.08.2017 14:00:00 31,2 16,7 18 10 S 1015,1 0,0
18.08.2017 13:00:00 31,5 15,9 18 10 S 1015,3 -
18.08.2017 12:00:00 31,0 15,0 16 9 S 1015,6 -
18.08.2017 11:00:00 30,0 19,0 13 7 S 1015,7 -
18.08.2017 10:00:00 29,2 20,6 9 5 S 1015,4 -
18.08.2017 09:00:00 29,5 17,9 4 2 S 1014,9 -
18.08.2017 08:00:00 - - - - - - -
18.08.2017 07:00:00 28,9 14,3 4 2 NO 1014,2 -
18.08.2017 06:00:00 28,9 13,9 5 3 ONO 1014,1 -
18.08.2017 05:00:00 28,9 13,9 4 2 SO 1013,9 -
18.08.2017 04:00:00 28,8 14,9 8 4 SSO 1013,8 -
18.08.2017 03:00:00 28,9 13,5 5 3 N 1013,7 -
18.08.2017 02:00:00 29,4 13,6 2 1 N 1014,0 0,0
18.08.2017 01:00:00 29,2 14,9 4 2 SSO 1014,1 -
18.08.2017 00:00:00 29,0 14,4 0 0 N 1014,0 -
17.08.2017 23:00:00 28,5 18,2 8 4 NNO 1014,0 -
17.08.2017 22:00:00 29,6 17,4 8 4 O 1014,0 -
17.08.2017 21:00:00 28,9 21,6 5 3 OSO 1013,5 -
17.08.2017 20:00:00 - - - - - - -
17.08.2017 19:00:00 29,7 25,0 5 3 E 1013,2 -
17.08.2017 18:00:00 30,1 24,0 5 3 SE 1013,2 -
17.08.2017 17:00:00 30,5 22,9 5 3 OSO 1013,2 -
17.08.2017 16:00:00 30,9 22,5 8 4 ONO 1013,2 -
17.08.2017 15:00:00 30,2 23,8 13 7 S 1013,6 -
17.08.2017 14:00:00 31,3 23,1 11 6 S 1013,8 0,0
17.08.2017 13:00:00 30,2 23,6 11 6 S 1014,0 -
17.08.2017 12:00:00 28,9 24,4 15 8 S 1014,2 -
17.08.2017 11:00:00 28,8 21,3 16 9 S 1014,2 -
17.08.2017 10:00:00 28,6 18,9 13 7 S 1014,3 -
17.08.2017 09:00:00 28,7 17,8 8 4 SSE 1014,2 -
17.08.2017 08:00:00 - - - - - - -
17.08.2017 07:00:00 27,7 14,3 2 1 NNO 1013,7 -
17.08.2017 06:00:00 28,1 15,3 2 1 O 1013,3 -
17.08.2017 05:00:00 28,1 17,6 2 1 SO 1013,2 -
17.08.2017 04:00:00 28,5 15,7 2 1 ENE 1012,9 -
17.08.2017 03:00:00 28,4 16,9 2 1 OSO 1013,3 -
17.08.2017 02:00:00 28,3 16,5 2 1 NNO 1013,6 0,0
17.08.2017 01:00:00 27,8 19,3 4 2 NNO 1014,0 -
17.08.2017 00:00:00 28,1 19,0 2 1 ONO 1014,3 -
16.08.2017 23:00:00 27,5 21,2 8 4 SSO 1014,4 -
16.08.2017 22:00:00 28,2 20,2 5 3 S 1014,6 -
16.08.2017 21:00:00 27,7 20,0 9 5 NNO 1014,3 -
16.08.2017 20:00:00 - - - - - - -
16.08.2017 19:00:00 30,6 18,6 2 1 N 1013,7 -
16.08.2017 18:00:00 30,0 23,9 4 2 ESE 1013,6 -
16.08.2017 17:00:00 29,9 24,9 11 6 S 1013,7 -
16.08.2017 16:00:00 29,5 23,9 15 8 S 1013,9 -
16.08.2017 15:00:00 28,9 23,7 21 11 S 1014,3 -
16.08.2017 14:00:00 29,4 22,8 15 8 S 1015,0 0,0
16.08.2017 13:00:00 29,2 22,1 11 6 O 1015,4 -
16.08.2017 12:00:00 28,6 22,1 15 8 S 1015,8 -
16.08.2017 11:00:00 28,3 22,3 11 6 S 1015,9 -
16.08.2017 10:00:00 28,6 20,8 4 2 NE 1016,1 -
16.08.2017 09:00:00 28,7 18,1 8 4 NO 1015,8 -
16.08.2017 08:00:00 - - - - - - -
16.08.2017 07:00:00 27,1 13,4 4 2 NNO 1015,1 -
16.08.2017 06:00:00 27,2 12,4 9 5 N 1014,9 -
16.08.2017 05:00:00 26,8 13,1 11 6 NO 1014,6 -
16.08.2017 04:00:00 27,3 13,6 5 3 O 1014,9 -
16.08.2017 03:00:00 27,3 13,9 2 1 O 1015,1 -
16.08.2017 02:00:00 27,6 14,9 8 4 SO 1015,6 0,0
16.08.2017 01:00:00 26,6 18,9 9 5 SSO 1016,2 -
16.08.2017 00:00:00 26,9 17,6 8 4 SSO 1016,5 -
15.08.2017 23:00:00 26,5 21,4 4 2 ENE 1017,0 -
15.08.2017 22:00:00 26,3 22,1 9 5 SE 1017,2 -
15.08.2017 21:00:00 27,0 22,6 4 2 SO 1017,1 -
15.08.2017 20:00:00 - - - - - - -
15.08.2017 19:00:00 28,6 23,0 4 2 ESE 1016,8 -
15.08.2017 18:00:00 28,8 23,0 5 3 ESE 1016,8 -
15.08.2017 17:00:00 29,1 23,0 8 4 ESE 1017,1 -
15.08.2017 16:00:00 30,1 22,5 8 4 S 1017,1 -
15.08.2017 15:00:00 29,9 21,0 8 4 ESE 1017,4 -
15.08.2017 14:00:00 30,7 22,0 9 5 ESE 1017,9 0,0
15.08.2017 13:00:00 29,6 21,8 9 5 SSE 1018,1 -
15.08.2017 12:00:00 28,9 22,6 11 6 SO 1018,3 -
15.08.2017 11:00:00 28,1 21,8 9 5 S 1018,2 -
15.08.2017 10:00:00 27,8 21,1 8 4 SSE 1017,9 -
15.08.2017 09:00:00 27,7 19,7 5 3 SSE 1017,7 -
15.08.2017 08:00:00 - - - - - - -
15.08.2017 07:00:00 26,0 17,3 11 6 SO 1017,4 -
15.08.2017 06:00:00 25,7 18,6 9 5 NE 1017,4 -
15.08.2017 05:00:00 25,8 19,1 9 5 SSE 1017,0 -
15.08.2017 04:00:00 26,2 18,8 5 3 SO 1017,2 -
15.08.2017 03:00:00 25,6 18,5 8 4 ONO 1017,4 -
15.08.2017 02:00:00 26,2 19,8 9 5 O 1017,6 0,0
15.08.2017 01:00:00 26,1 19,4 5 3 NO 1017,7 -
15.08.2017 00:00:00 26,2 19,3 5 3 NNO 1017,6 -
14.08.2017 23:00:00 27,1 18,9 4 2 S 1017,4 -
14.08.2017 22:00:00 26,9 20,0 5 3 SSO 1017,4 -
14.08.2017 21:00:00 27,0 20,3 5 3 SSO 1017,1 -
14.08.2017 20:00:00 - - - - - - -
14.08.2017 19:00:00 28,6 22,8 2 1 SE 1016,1 -
14.08.2017 18:00:00 29,3 23,2 4 2 ENE 1016,1 -
14.08.2017 17:00:00 29,4 23,5 8 4 SE 1015,8 -
14.08.2017 16:00:00 29,0 22,9 11 6 SSO 1016,2 -
14.08.2017 15:00:00 28,8 21,8 13 7 SSE 1016,6 -
14.08.2017 14:00:00 28,0 21,5 18 10 S 1016,9 0,0
14.08.2017 13:00:00 28,0 20,2 22 12 S 1017,2 -
14.08.2017 12:00:00 27,6 20,1 22 12 S 1017,4 -
14.08.2017 11:00:00 27,3 19,8 18 10 S 1017,2 -
14.08.2017 10:00:00 26,8 18,6 18 10 S 1016,8 -
14.08.2017 09:00:00 26,5 17,8 15 8 S 1016,5 -
14.08.2017 08:00:00 - - - - - - -
14.08.2017 07:00:00 25,7 16,5 11 6 SSO 1015,8 -
14.08.2017 06:00:00 25,8 16,3 11 6 SSO 1015,4 -
14.08.2017 05:00:00 26,0 15,6 9 5 SO 1015,2 -

tt = Temperatura
td = dewpoint
ff = velocità del vento
dd = direzione del vento
ppp = reduced air pressure
rr = precipitazioni

Stazioni seguenti

WeatherPro
AMSI
MeteoEarth